Flag Weather past 2 weeks in Cape Dorset, Nunavut Territory, Canada

Now
5 °F

Light snow. Overcast.


Feels Like: -16 °F
Forecast: 1 / 8 °F
Wind: 21 mph from West

Location: Cape Dorset

Current Time: Nov 23, 2014 at 1:57:06 PM

Latest Report: Nov 23, 2014 at 1:00 PM


Visibility: 2 mi

Pressure: 29.42 "Hg

Humidity: 85%

Dew point: 1 °F

Location of Cape DorsetLocation

Historic Weather in Cape Dorset — Graph

°F

Cape Dorset temperature yesterday

Maximum temperature yesterday: 9 °F (at 5:49 AM)
Minimum temperature yesterday: -2 °F (at 11:00 PM)
Average temperature yesterday: 6 °F

Past Weeks' High & Low Weather Summary

 TemperatureHumidityPressure
High28 °F (Nov 9, 5:55 AM)100% (Nov 8, 7:00 PM)30.16 "Hg (Nov 8, 7:00 PM)
Low-2 °F (Nov 22, 11:00 PM)68% (Nov 18, 12:00 PM)29.25 "Hg (Nov 20, 11:00 AM)
Average12 °F86%29.65 "Hg
* Reported Nov 8 12:00 Noon — Nov 23 12:00 Noon, Cape Dorset, Weather by CustomWeather, © 2014

Note: Actual official high and low records may vary slightly from our data, if they occured in-between our weather recording intervals... More about our weather records

Advertising

Cape Dorset weather history for previous 24 hours

 ConditionsComfort  
Time TempWeatherWind HumidityBarometerVisibility
12:00 PM
Nov 23
1 °FLight snow. Overcast.6 mph85%29.44 "Hg7 mi
11:55 AM1 °FLight snow. Overcast.5 mph85%29.44 "Hg6 mi
11:00 AM1 °FLight snow. Overcast.7 mph85%29.44 "Hg2 mi
10:58 AM1 °FLight snow. Overcast.8 mph85%29.44 "Hg2 mi
10:02 AM1 °FLight snow. Overcast.8 mph78%29.44 "Hg9 mi
9:00 AM0 °FOvercast.7 mph78%29.44 "Hg9 mi
8:00 AM1 °FOvercast.8 mph85%29.45 "Hg9 mi
7:46 AM1 °FOvercast.7 mph85%29.45 "Hg9 mi
7:00 AM1 °FBroken clouds.12 mph85%29.43 "Hg9 mi
6:54 AM1 °FPartly cloudy.13 mph92%29.43 "Hg9 mi
6:00 AM1 °FPassing clouds.8 mph85%29.43 "Hg9 mi
5:00 AM1 °FOvercast.6 mph85%29.43 "Hg9 mi
4:00 AM1 °FOvercast.7 mph85%29.41 "Hg9 mi
3:00 AM1 °FLight snow. Overcast.8 mph85%29.40 "Hg7 mi
2:58 AM1 °FLight snow. Overcast.8 mph92%29.40 "Hg6 mi
2:00 AM1 °FPassing clouds.6 mph85%29.39 "Hg9 mi
1:04 AM1 °FFrigid.8 mph85%29.38 "Hg9 mi
12:00 AM1 °FMostly cloudy.8 mph85%29.38 "Hg9 mi
11:00 PM
Nov 22
-2 °FClear.5 mph84%29.37 "Hg9 mi
10:00 PM0 °FPassing clouds.5 mph84%29.37 "Hg9 mi
9:00 PM0 °FPassing clouds.3 mph84%29.37 "Hg9 mi
8:00 PM1 °FClear.5 mph85%29.38 "Hg9 mi
7:00 PM3 °FClear.3 mph85%29.37 "Hg9 mi
6:00 PM3 °FClear.3 mph85%29.36 "Hg9 mi
5:00 PM3 °FLight snow. Clear.3 mph92%29.36 "Hg9 mi
3:00 PM5 °FClear.2 mph92%29.36 "Hg9 mi
2:47 PM5 °FClear.2 mph85%29.36 "Hg9 mi
2:02 PM7 °FLight snow. Partly cloudy.No wind85%29.35 "Hg4 mi
1:00 PM7 °FLight snow. Mostly cloudy.2 mph85%29.36 "Hg4 mi
Weather by CustomWeather, © 2014

See weather overviewHow to use our weather pages